{"data":{"norad_id":43823,"intl_designator":"2018-100A","name":"GEO-KOMPSAT-2A","alt_names":[],"object_type":"PAYLOAD","status":"ACTIVE","operator":null,"country":"SKOR","launch_date":"2018-12-04","launch_site_code":"FRGUI","launch_vehicle":null,"mission":null,"orbit_class":"UNKNOWN","rcs_meters":null,"size_class":null,"mass_kg":null,"dimensions":null,"purposes":["comms","earth_obs"],"wikipedia_slug":null,"has_3d_model":false,"image_url":null,"decayed_at":null,"tle_current":{"epoch":"2026-09-19T22:42:48.280896Z","epoch_age_seconds":62286,"freshness":"FRESH","line1":"1 43823U 18100A   26262.94639214 -.00000348  00000+0  00000+0 0  9990","line2":"2 43823   0.0431   9.5080 0001908 114.8256 343.4948  1.00272121 28581","mean_motion":1.00272121,"eccentricity":0.0001908,"inclination_deg":0.0431,"raan_deg":9.508,"arg_perigee_deg":114.8256,"mean_anomaly_deg":343.4948,"bstar":0,"rev_number":2858,"period_min":1436.0920918388,"perigee_km":35778.45575557,"apogee_km":35794.545781343,"semimajor_km":42164.637768457,"source":"CELESTRAK","updated_at":"2026-09-20T09:00:35.263631Z"}}}